Tracking 30918 objects as of 2-Jul-2025
HD Live streaming from Space Station
objects crossing your sky now

STARLINK-11127

Track STARLINK-11127 now!
10-day predictions
STARLINK-11127 is classified as:


NORAD ID: 60119
Int'l Code: 2024-118G
Perigee: 366.3 km
Apogee: 367.3 km
Inclination: 53.2 °
Period: 91.7 minutes
Semi major axis: 6737 km
RCS: Unknown
Launch date: June 24, 2024
Source: United States (US)
Launch site: AIR FORCE WESTERN TEST RANGE (AFWTR)
Your satellite tracking list
Your tracking list is empty




NASA's NSSDC Master Catalog

Two Line Element Set (TLE):
1 60119U 24118G   25182.83244934 -.00000862  00000-0 -22575-5 0  9992
2 60119  53.1597  17.8764 0000727  85.9058 274.2043 15.69719301 58594
Source of the keplerian elements: AFSPC